IRIDIUM 123

Last updated on Fri Sep 11 2026 00:03:06 GMT+0000 (Coordinated Universal Time)

1 42804U 17039B 26253.53896767 .00000037 00000+0 62812-5 0 9990 2 42804 86.3990 317.9801 0002328 91.0561 269.0901 14.34217151482180
UTC large
Height (km)
Speed (km/s)
/
Latitude / Longitude
Inclination (degrees)
Orbital Period (minutes)
Azimuth
Elevation
Range (km)
Doppler Factor

Next 0 passes for location: London (51.5072 / 0.1276)

No passes found over London.
IRIDIUM 123